#timestamp,LO_Frequency,Hit,StdDev 
1609428895.9,286047065.7,P
1609428915.7,286047070.0,P
1609428935.6,286047067.5,P
1609428955.4,286047067.6,Y
1609428975.3,286047002.1,P
1609428995.1,286047001.5,N
1609428996.0,286047001.5,N
1609429015.8,286047003.1,N
1609429035.7,286047005.3,N
1609429055.5,286047005.4,N
1609429075.3,286047005.1,N
1609429095.2,286047005.4,N
1609429115.0,286047007.6,N
1609429115.9,286047007.6,N
1609429135.8,286047006.4,N
1609429155.6,286047008.8,N
1609429175.4,286047010.0,N
1609429195.3,286047011.4,N
1609429215.1,286047011.4,N
1609429235.9,286047013.2,N
1609429255.7,286047011.6,N
1609429275.5,286047013.0,N
1609429295.4,286047013.4,N
1609429315.2,286047015.2,N
1609429335.0,286047014.2,N
1609429335.9,286047014.2,N
1609429355.8,286047018.8,N
1609429375.6,286047016.4,N
1609429395.5,286047017.3,N
1609429415.3,286047020.4,N
1609429435.1,286047021.0,N
1609429455.9,286047021.5,N
1609429475.7,286047021.0,N
1609429495.5,286047022.1,N
1609429515.4,286047020.8,Y
1609429535.2,286047009.9,P
1609429555.1,286047011.6,P
1609429556.0,286047011.6,P
1609429575.8,286047011.0,Y
1609429595.6,286047002.3,P
1609429615.5,286047001.6,N
1609429635.3,286047002.2,N
1609429655.1,286047001.6,N
1609429675.9,286047003.5,N
1609429695.7,286047003.0,N
1609429715.6,286047003.4,N
1609429735.4,286047003.0,N
1609429755.2,286047004.5,N
1609429775.1,286047005.9,N
1609429776.0,286047005.9,N
1609429795.8,286047007.5,N
1609429815.7,286047006.6,N
1609429835.5,286047010.5,Y
1609429855.3,286047007.5,P
1609429875.2,286047008.5,P
1609429895.0,286047009.1,P
1609429895.9,286047009.1,Y
1609429915.7,286047000.1,P
1609429935.6,286047002.1,N
1609429955.4,286047002.8,N
1609429975.3,286047003.5,N
1609429995.1,286047004.9,N
1609429996.0,286047004.9,N
1609430015.8,286047006.1,N
1609430035.7,286047006.1,N
1609430055.5,286047007.4,Y
1609430075.4,286047003.4,P
1609430095.2,286047005.6,P
1609430115.0,286047003.0,P
1609430115.9,286047003.0,N
1609430135.8,286047007.0,Y
1609430155.6,286047002.4,P
1609430175.4,286046999.9,N
1609430195.3,286047002.0,N
1609430215.1,286047004.2,N
1609430235.9,286047004.1,N
1609430255.7,286047007.5,Y
1609430275.5,286047005.9,P
1609430295.4,286047002.9,N
1609430315.2,286047002.9,N
1609430335.1,286047004.7,Y
1609430336.0,286047004.7,P
1609430355.8,286047001.9,P
1609430375.6,286047003.6,P
1609430395.5,286047005.2,Y
